Find Starlink 5297

NORAD ID: 54158 Int'l Des: 2022-141 Owner: SPXS Country: US Constellation: starlink operational
LEOCIRCULAR

Live-Position

3D-Globus wird geladen...

Über Starlink 5297

Beschreibung wird geladen...

Nächste Überflüge

Passes for default location (London). Set your location on the main map for personalized predictions.

Höhenverlauf

Loading altitude history...

Zweizeiliger Elementsatz

1 54158U 22141B 26126.17474197 .00000120 00000-0 25655-4 0 9990
2 54158 53.2169 116.1917 0001404 88.6850 271.4303 15.08841852194399
Epoch: 6. Mai 2026 • Age: 10 hours

Aktueller Status

Höhe 545.1 km
Geschwindigkeit 7.60 km/s
Subsatellitenpunkt 52.26°N, 143.44°E
Startdatum 28. Okt. 2022
Alter 3.5 years
Typ internet

Technische Details

Klassifizierung Payload
Masse 305.00 kg
Trockenmasse 290.00 kg
Gesamtmasse 305.00 kg
Länge 0.20 m
Durchmesser 2.80 m
Spannweite 9.00 m
Form Box + pan
Hersteller SPXS
Bus-Typ Starlink
Phasenstatus In Orbit
Besitzer/Staat SPXS/US

Most Searched